STARLINK-33809, 63508

Orbit data source: Space-Track

STARLINK-33809, 63508 is a payload satellite owned by SpaceX/Seattle (US) in LEO that was launched on Mon, 07 Apr 2025 UTC via an FALCON 9 launch vehicle from the Air Force Western Test Range (AFWTR). Payload-class satellites include a variety of spacecraft equipped with specific instruments for various scientific and technological missions. These include communications satellites like Starlink; space stations such as the ISS; scientific satellites like the Hubble; Earth observation satellites from companies like Planet Labs, Umbra, and HawkEye 360; GPS; miniature CubeSats for education and research; and military/defense satellites.

Loading next visibility...
Identifier
63508, 2025-071R
Orbit
LEO
Country
Flag of USUS
Related business
Manufacturer
SpaceX/Seattle
Mission
Operational Commercial Communications
Bus & Motor
STARLINK V2MO, Unknown motor
Mass
575 kg wet, ~530 kg dry
Launch date (UTC)
2025-04-07 (1 year ago)
Launch vehicle
FALCON 9
Launch site
Air Force Western Test Range (AFWTR)
Object type
Payload
Rocket body
Debris
Shape & HBR
Box + 2 Pan, 17.7 m
Radar Cross Section
36.964 m², Large (>1 m²)

Expand to show TLE details & history
Last TLE update: 19 hours ago

TLE from 19 hours ago
0 STARLINK-33809
1 63508U 25071R   26192.60512450  .00013594  00000-0  47016-3 0  9993
2 63508  53.1586 284.1900 0001244  55.1711 304.9407 15.30206399 71684
Epoch: 2026-07-11T14:31Z
TLE epoch observation values (Epoch: 2026-07-11T14:31:22.756Z)
Latitude
-0.00001°
Longitude
136.82923°
Altitude
475.607 km
Speed
7.629 km/s
True Right ascension
18h 56m 45s
True Declination
0° 00' 00"
Sunlit
Object was in full shadow at epoch
Visualization orbit readout
Latitude
Unknown
Longitude
Unknown
Altitude
Unknown
Speed
Unknown
Apparent Right ascension
Unknown
Apparent Declination
Unknown
Sunlit
N/A
Visualization observer readout
Local Sidereal Time
21:22:24
Azimuth
Unknown
Elevation
Unknown
Doppler factor
Unknown
Orbital elements
Apogee altitude
476.305 km
Perigee altitude
474.6 km
Semi-major axis
6,853.59 km
Eccentricity
0.00012
Inclination
53.1586°
RAAN
284.19°
Arg. of periapsis
55.1711°
True anomaly
304.92901°
Mean anomaly
304.9407°
Eccentric anomaly
304.93486°
Mean motion
3.8253 °/min
Orbital period
94.11 mins
BSTAR
0.00047016
Loading maneuver chart data...
Computing Atmospheric mass density...
Loading historical data...
Loading historical data...
Loading historical data...
Loading historical data...
Loading historical data...
Loading historical data...
Loading historical data...

Documentation

Showing up to 5 results
|